Showing default

YAOGAN-30 E, 43029

Orbit data source: Space-Track

YAOGAN-30 E, 43029 is a payload satellite owned by PLA SSF (CN) in LEO that was launched on Fri, 24 Nov 2017 UTC via a CHANG ZHENG 2C launch vehicle from the Xichang Space Center, China (XSC). Payload-class satellites include a variety of spacecraft equipped with specific instruments for various scientific and technological missions. These include communications satellites like Starlink; space stations such as the ISS; scientific satellites like the Hubble; Earth observation satellites from companies like Planet Labs, Umbra, and HawkEye 360; GPS; miniature CubeSats for education and research; and military/defense satellites.

Loading next visibility...
Identifier
43029, 2017-075B
Orbit
LEO
Country
Flag of CNCN / PRC
Related business
Manufacturer
SECM
Mission
Operational Defense Sigint
Bus & Motor
Unknown
Mass
~500 kg wet, ~500 kg dry
Launch date (UTC)
2017-11-24 (9 years ago)
Launch vehicle
CHANG ZHENG 2C
Launch site
Xichang Space Center, China (XSC)
Object type
Payload
Rocket body
Debris
Shape & HBR
Box + 2 Pan, 0.5 m
Radar Cross Section
0.446 m², Large (>1 m²)

Expand to show TLE details & history
Last TLE update: 22 hours ago

TLE from 22 hours ago
0 YAOGAN-30 E
1 43029U 17075B   26172.52352804  .00001734  00000-0  12942-3 0  9991
2 43029  34.9938 243.8053 0004072 278.5918  81.4329 15.02713062468017
Epoch: 2026-06-21T12:33Z
TLE epoch observation values (Epoch: 2026-06-21T12:33:52.822Z)
Latitude
-0.00001°
Longitude
145.61262°
Altitude
557.031 km
Speed
7.586 km/s
True Right ascension
16h 15m 13s
True Declination
0° 00' 00"
Sunlit
Object was in full shadow at epoch
Visualization orbit readout
Latitude
Unknown
Longitude
Unknown
Altitude
Unknown
Speed
Unknown
Apparent Right ascension
Unknown
Apparent Declination
Unknown
Sunlit
N/A
Visualization observer readout
Local Sidereal Time
21:40:16
Azimuth
Unknown
Elevation
Unknown
Doppler factor
Unknown
Orbital elements
Apogee altitude
564.583 km
Perigee altitude
558.931 km
Semi-major axis
6,939.894 km
Eccentricity
0.00041
Inclination
34.9938°
RAAN
243.8053°
Arg. of periapsis
278.5918°
True anomaly
81.47904°
Mean anomaly
81.4329°
Eccentric anomaly
81.45597°
Mean motion
3.75417 °/min
Orbital period
95.89 mins
BSTAR
0.00012942
Loading maneuver chart data...
Computing Atmospheric mass density...
Loading historical data...
Loading historical data...
Loading historical data...
Loading historical data...
Loading historical data...
Loading historical data...
Loading historical data...
Other satellites on launch #75 in the year 2017 (2017-11-24 UTC)

Documentation

Showing up to 5 results
|